DW6554 Weather Reports


Display with metric or nautical units.
time (UTC)temp
F
wind
direction
speed
MPH
gust
MPH
rain 1hr
in
rain 24hr
in
rain mn
in
humidity
%
barometer
mb
20260504204521 69 295 2.0 9.0 0.00 0.00 0.00 39 1009.6
20260504203022 69 323 3.0 16.0 0.00 0.00 0.00 37 1009.5
20260504201521 70 311 3.0 11.0 0.00 0.00 0.00 35 1009.4
20260504200022 70 318 1.0 6.0 0.00 0.00 0.00 35 1009.7
20260504194519 71 341 3.0 7.0 0.00 0.00 0.00 35 1009.6
20260504193021 71 267 3.0 15.0 0.00 0.00 0.00 34 1009.8
20260504191515 70 267 4.0 12.0 0.00 0.00 0.00 34 1009.7
20260504190014 70 296 5.0 10.0 0.00 0.00 0.00 33 1009.8
20260504184513 69 331 3.0 9.0 0.00 0.00 0.00 34 1009.9
20260504183012 70 316 2.0 11.0 0.00 0.00 0.00 33 1010.2
20260504181509 69 269 3.0 9.0 0.00 0.00 0.00 32 1010.4
20260504180008 69 332 4.0 13.0 0.00 0.00 0.00 33 1010.3
20260504174504 68 215 4.0 12.0 0.00 0.00 0.00 35 1010.5
20260504173003 68 322 5.0 13.0 0.00 0.00 0.00 33 1010.9
20260504171502 68 263 2.0 16.0 0.00 0.00 0.00 33 1010.8
20260504081530 41 360 0.0 0.0 0.00 0.00 0.00 65 1012.9
20260504050025 41 180 0.0 0.0 0.00 0.00 0.00 61 1013.0
20260504044517 42 180 0.0 0.0 0.00 0.00 0.00 62 1013.1
20260504043015 42 180 0.0 0.0 0.00 0.00 0.00 59 1013.1
20260504041522 42 180 0.0 0.0 0.00 0.00 0.00 59 1013.0
20260504040009 42 180 0.0 0.0 0.00 0.00 0.00 57 1012.8
20260504034507 42 180 0.0 2.0 0.00 0.00 0.00 58 1012.8
20260504033007 42 180 0.0 2.0 0.00 0.00 0.00 59 1012.7
20260504031508 42 196 0.0 2.0 0.00 0.00 0.00 58 1012.7
20260504030005 42 196 0.0 0.0 0.00 0.00 0.00 58 1012.6
20260504024504 42 196 0.0 0.0 0.00 0.00 0.00 58 1012.5
20260504023004 43 196 0.0 0.0 0.00 0.00 0.00 60 1012.4
20260504021502 44 196 0.0 0.0 0.00 0.00 0.00 54 1012.2
20260504020001 43 227 0.0 0.0 0.00 0.00 0.00 54 1012.2
20260504014603 44 284 0.0 0.0 0.00 0.00 0.00 55 1012.1
20260504013059 44 284 0.0 0.0 0.00 0.00 0.00 54 1012.0
20260504011559 44 284 0.0 0.0 0.00 0.00 0.00 54 1011.9
20260504010058 45 284 0.0 0.0 0.00 0.00 0.00 55 1011.6
20260504004558 45 284 0.0 0.0 0.00 0.00 0.00 50 1011.3
20260504003057 46 284 0.0 0.0 0.00 0.00 0.00 50 1011.2
20260504001601 47 284 0.0 0.0 0.00 0.00 0.00 48 1010.9
20260504000059 49 284 0.0 0.0 0.00 0.00 0.00 50 1010.7
20260503234624 50 284 0.0 1.0 0.00 0.00 0.00 45 1010.7
20260503233055 50 271 1.0 5.0 0.00 0.00 0.00 44 1010.6
20260503231555 51 266 2.0 5.0 0.00 0.00 0.00 42 1010.4
20260503230058 51 310 2.0 6.0 0.00 0.00 0.00 43 1010.3
20260503224554 51 338 4.0 9.0 0.00 0.00 0.00 42 1010.2
20260503223054 52 329 6.0 11.0 0.00 0.00 0.00 41 1010.2
20260503221559 52 321 5.0 8.0 0.00 0.00 0.00 41 1010.2
20260503220053 52 25 5.0 8.0 0.00 0.00 0.00 44 1010.1
20260503214552 52 275 5.0 14.0 0.00 0.00 0.00 43 1009.8
20260503213052 51 355 4.0 10.0 0.00 0.00 0.00 43 1009.7
20260503211552 51 323 3.0 10.0 0.00 0.00 0.00 44 1009.6
20260503210051 51 295 7.0 14.0 0.00 0.00 0.00 42 1009.4